Das Wetter in  D-61279 Heinzenberg / Taunus





Wetter Minimum- & Maximum-Werte im April 2015

Standort: Heinzenberg / Taunus - Höhe 297 m         8° 24' 1" Ost 50° 21' 51" Nord
(   3-stündige Aktualisierung    letzte Aktualisierung um 20:46 am 30.04.2015  )


Messgrösse

Minimum

Maximum

Durchschnitt

Temperatur West /
Luftfeuchte West
Anklicken für Monats-Diagramm

-3,2 °C

07:42
07.04.2015

27 %

16:58
19.04.2015

26,7 °C

17:04
15.04.2015

90 %

08:37
02.04.2015

Temp

9,8 °C

Feuchte

62 %

Temperatur Ost /
Luftfeuchte Ost
Anklicken für Monats-Diagramm

-2,8 °C

07:20
05.04.2015

--

--
--

26,0 °C

16:49
15.04.2015

--

--
--

9,8 °C

--

Luftdruck Anklicken für Monats-Diagramm

1001,1 hPa

03:10
27.04.2015

1039,3 hPa

08:17
07.04.2015

1020,6 hPa

Taupunkt

-6,5 °C

07:42
07.04.2015

12,8 °C

15:19
26.04.2015

2,3 °C

Windchill
( gefühlte Temperatur )

-16,1 °C

06:26
01.04.2015

25,1 °C

15:05
21.04.2015

7,6 °C

Windgeschwindigkeit /
Windrichtung
Anklicken für Monats-Diagramm

---

57,1 km/h / W

16:41
01.04.2015

9,1 km/h
W

Helligkeit /
Sonnenschein
Anklicken für Monats-Diagramm
Anklicken für Monats-Diagramm

Sonnenschein:

210:07 Stunden

Max: 12:15 Std am
20.04.2015

105,0 klux

13:53
30.04.2015

31 klux

Solarstrahlung Anklicken für Monats-Diagramm

---

718 W/m²

13:53
30.04.2015

229 W/m²

Regenmenge
    April 2015
Anklicken für Monats-Diagramm

Insgesamt 40,1 l/m²

in 53:27 Stunden
an 11 Tagen

16,7 l/m²

02:25
27.04.2015

Gesamtmenge

40,1 l/m²

Regen-Tage
    April 2015
Anklicken für Monats-Diagramm

>   0 mm/Tag

>   2 mm/Tag

>   5 mm/Tag

> 10 mm/Tag

> 20 mm/Tag

11 Tage     
4 Tage     
3 Tage     
  1 Tag     
0 Tage     

Eisige Tage April 2015 / 2014

Tmin ≤ -10°C     

0 Tage

/

0 Tage

Eistage April 2015 / 2014

Tmax <     0°C     

0 Tage

/

0 Tage

Frosttage April 2015 / 2014

Tmin ≤     0°C     

7 Tage

/

2 Tage

Kalte Tage April 2015 / 2014

Tmax <   10°C     

3 Tage

/

  1 Tag

Warme Tage April 2015 / 2014

Tmax ≥   20°C     

11 Tage

/

11 Tage

Sommertage April 2015 / 2014

Tmax ≥   25°C     

2 Tage

/

2 Tage

Heisse Tage April 2015 / 2014

Tmax ≥   30°C     

0 Tage

/

0 Tage


Monatsdiagramm April 2015

Die Kurven zeigen den Durchschnittswert des jeweiligen Tages an


Wetter-Monatsübersicht April 2015
Datum
  Temperatur
   Luftdruck
   Wind
  Regen
   Luftfeuchte
   Helligkeit

Sonnen-
schein

Ø
Temp.

Min.
Temp.

Max.
Temp.

Ø
Luftdruck

Min.
Luftdruck

Max.
Luftdruck

Ø-Geschw.
Haupt-Richtg.

Max.
Wind

Menge /
Dauer

Ø
Feuchte

Min.
Feuchte

Max.
Feuchte

Ø
Helligkeit

Max.
Helligkeit

1.
April
3,4 °C0,7 °C
06:41
7,7 °C
14:41
1016,4 hPa1010,4 hPa
00:06
1019,9 hPa
20:31
30,3 km/h
W
57,1 km/h
16:41  
1,2 l/m²
8:10 Stunden
78 %64 %
18:41
88 %
07:01
19,5 klux81,8 klux
13:36
2:45 Std 
2.
April
4,5 °C2,2 °C
23:58
8,9 °C
17:02
1015,3 hPa1009,4 hPa
09:37
1023,1 hPa
23:58
28,0 km/h
W
49,9 km/h
13:37  
6,8 l/m²
9:05 Stunden
74 %50 %
18:22
90 %
08:37
25,0 klux75,5 klux
12:42
4:15 Std 
3.
April
6,0 °C0,5 °C
07:18
13,8 °C
16:08
1020,3 hPa1015,6 hPa
18:13
1024,3 hPa
07:18
6,8 km/h
W
23,5 km/h
11:48  
---
63 %39 %
16:38
82 %
07:33
33,4 klux73,7 klux
13:58
6:55 Std 
4.
April
5,1 °C0,2 °C
23:55
9,4 °C
18:29
1016,4 hPa1014,9 hPa
17:09
1021,2 hPa
23:55
4,3 km/h
NO
24,1 km/h
17:49  
2,0 l/m²
4:00 Stunden
68 %48 %
18:29
83 %
11:09
15,5 klux51,9 klux
16:49
2:15 Std 
5.
April
4,2 °C-2,8 °C
07:35
13,8 °C
15:35
1023,7 hPa1021,2 hPa
00:00
1027,4 hPa
23:56
6,4 km/h
SO
27,1 km/h
12:00  
---
59 %31 %
16:05
83 %
09:05
34,5 klux81,8 klux
13:30
7:40 Std 
6.
April
4,1 °C-1,6 °C
02:51
12,5 °C
16:51
1029,1 hPa1026,5 hPa
06:41
1034,7 hPa
23:57
4,7 km/h
NO
24,8 km/h
15:51  
---
62 %41 %
17:01
76 %
08:46
21,2 klux81,2 klux
13:06
3:25 Std 
7.
April
5,0 °C-3,2 °C
07:42
13,7 °C
14:42
1035,9 hPa1033,2 hPa
17:37
1039,3 hPa
08:17
5,1 km/h
NW
20,2 km/h
15:52  
---
60 %37 %
14:07
79 %
08:27
31,6 klux71,6 klux
13:02
5:05 Std 
8.
April
8,5 °C-0,6 °C
07:03
19,6 °C
17:13
1032,8 hPa1030,2 hPa
17:13
1034,8 hPa
07:03
3,7 km/h
SO
18,8 km/h
12:43  
---
63 %38 %
17:18
80 %
08:53
36,7 klux73,4 klux
14:38
9:20 Std 
9.
April
11,0 °C1,5 °C
07:38
22,0 °C
16:13
1027,7 hPa1023,0 hPa
18:23
1032,1 hPa
02:03
3,6 km/h
SO
14,6 km/h
13:18  
---
65 %42 %
15:28
85 %
09:28
33,4 klux69,1 klux
14:18
7:25 Std 
10.
April
13,3 °C3,3 °C
07:19
24,3 °C
15:49
1021,2 hPa1017,3 hPa
17:09
1024,8 hPa
04:04
6,6 km/h
SO
25,3 km/h
13:09  
---
58 %28 %
16:04
85 %
09:04
38,0 klux70,3 klux
13:34
10:05 Std 
11.
April
12,7 °C8,2 °C
04:50
16,9 °C
11:55
1020,4 hPa1017,3 hPa
00:10
1027,4 hPa
23:46
17,8 km/h
W-SW
47,3 km/h
22:15  
0,5 l/m²
1:56 Stunden
59 %37 %
00:15
85 %
23:46
17,7 klux83,3 klux
11:35
1:55 Std 
12.
April
11,2 °C3,9 °C
07:11
18,9 °C
17:06
1028,4 hPa1025,3 hPa
18:51
1031,1 hPa
07:11
9,8 km/h
W
31,6 km/h
14:51  
---
20 Minuten
63 %36 %
15:56
85 %
00:01
36,7 klux73,9 klux
12:46
8:35 Std 
13.
April
11,2 °C5,5 °C
23:57
15,1 °C
16:22
1029,1 hPa1025,9 hPa
00:02
1031,9 hPa
23:57
17,8 km/h
NW
34,4 km/h
14:52  
---
58 %38 %
17:41
72 %
08:52
29,0 klux74,8 klux
12:57
4:50 Std 
14.
April
12,0 °C1,7 °C
07:03
22,9 °C
18:18
1027,2 hPa1021,5 hPa
18:23
1032,3 hPa
02:52
9,7 km/h
W
38,1 km/h
16:13  
---
59 %36 %
18:58
76 %
09:08
38,1 klux73,4 klux
13:53
10:45 Std 
15.
April
16,7 °C7,0 °C
07:14
26,7 °C
17:04
1018,0 hPa1012,0 hPa
18:54
1023,0 hPa
02:14
9,6 km/h
W
38,0 km/h
14:14  
---
53 %28 %
17:14
79 %
08:54
39,6 klux68,8 klux
13:24
11:35 Std 
16.
April
15,2 °C7,0 °C
07:25
23,9 °C
16:20
1013,2 hPa1010,1 hPa
17:25
1016,0 hPa
08:45
6,5 km/h
NW
24,1 km/h
14:50  
---
57 %40 %
16:10
76 %
09:00
34,3 klux73,8 klux
13:40
6:21 Std 
17.
April
10,3 °C5,2 °C
23:57
18,2 °C
15:06
1015,8 hPa1013,1 hPa
04:16
1021,6 hPa
23:57
8,2 km/h
NO
28,1 km/h
14:31  
1,7 l/m²
1:45 Stunden
59 %36 %
13:51
81 %
06:31
30,2 klux79,4 klux
12:51
5:15 Std 
18.
April
8,1 °C-0,4 °C
06:37
17,5 °C
16:57
1024,7 hPa1021,6 hPa
00:02
1026,4 hPa
07:37
7,1 km/h
SO
23,8 km/h
13:17  
---
56 %31 %
15:52
79 %
07:42
37,7 klux81,7 klux
13:07
10:45 Std 
19.
April
9,5 °C-1,1 °C
06:33
21,2 °C
17:43
1022,1 hPa1018,6 hPa
17:43
1026,1 hPa
00:58
5,7 km/h
SO
23,8 km/h
12:08  
---
51 %27 %
16:58
75 %
08:23
39,7 klux70,9 klux
14:08
11:35 Std 
20.
April
12,2 °C1,3 °C
05:44
24,1 °C
16:54
1025,7 hPa1023,5 hPa
16:54
1028,2 hPa
23:55
7,1 km/h
SO
28,0 km/h
15:09  
---
51 %27 %
16:09
75 %
07:39
40,6 klux70,7 klux
13:34
12:15 Std 
21.
April
13,8 °C3,1 °C
07:00
25,2 °C
15:10
1028,5 hPa1025,5 hPa
16:55
1031,2 hPa
07:55
7,8 km/h
SO
27,6 km/h
17:10  
---
51 %28 %
15:00
76 %
08:35
40,0 klux71,4 klux
13:30
12:15 Std 
22.
April
10,4 °C2,4 °C
06:55
18,8 °C
14:15
1026,1 hPa1023,1 hPa
15:15
1029,7 hPa
02:35
7,6 km/h
NO
28,0 km/h
13:00  
---
55 %37 %
14:05
75 %
07:45
40,8 klux81,3 klux
14:35
11:46 Std 
23.
April
11,0 °C0,9 °C
06:41
22,0 °C
17:46
1019,2 hPa1014,4 hPa
17:46
1024,7 hPa
00:01
3,4 km/h
SO
22,4 km/h
16:21  
---
57 %32 %
16:46
79 %
08:21
40,1 klux71,0 klux
13:11
12:05 Std 
24.
April
13,4 °C3,3 °C
06:27
23,8 °C
17:22
1013,8 hPa1010,1 hPa
17:22
1017,3 hPa
01:52
7,3 km/h
SW
27,7 km/h
14:12  
---
53 %32 %
17:27
74 %
05:27
39,4 klux71,7 klux
13:57
11:10 Std 
25.
April
11,9 °C8,2 °C
05:03
15,5 °C
13:08
1009,6 hPa1007,9 hPa
16:48
1011,7 hPa
01:38
6,6 km/h
W-SW
29,3 km/h
10:18  
2,6 l/m²
4:30 Stunden
72 %57 %
00:03
85 %
12:23
14,5 klux58,3 klux
12:33
5 Min 
26.
April
14,1 °C8,3 °C
03:24
21,1 °C
17:04
1006,8 hPa1002,9 hPa
22:45
1010,7 hPa
00:59
6,0 km/h
SW
27,0 km/h
10:34  
1,7 l/m²
1:45 Stunden
75 %51 %
16:59
88 %
05:24
23,3 klux83,3 klux
14:19
2:10 Std 
27.
April
10,7 °C6,2 °C
23:26
13,7 °C
00:00
1003,9 hPa1001,1 hPa
03:10
1008,0 hPa
23:26
4,9 km/h
N-NO
19,3 km/h
20:00  
16,7 l/m²
13:46 Stunden
87 %78 %
00:00
90 %
10:20
7,0 klux21,8 klux
16:50
--- 
28.
April
8,2 °C3,7 °C
23:57
13,9 °C
14:31
1014,8 hPa1008,0 hPa
00:01
1021,8 hPa
23:57
11,3 km/h
NW
36,7 km/h
14:36  
---
15 Minuten
70 %44 %
14:36
87 %
00:01
33,3 klux92,0 klux
14:26
7:20 Std 
29.
April
8,0 °C-0,9 °C
06:17
16,7 °C
15:22
1019,1 hPa1014,4 hPa
19:57
1023,3 hPa
03:17
6,4 km/h
W-SW
28,9 km/h
17:12  
---
60 %36 %
13:02
83 %
08:02
36,0 klux80,9 klux
13:17
6:30 Std 
30.
April
8,7 °C5,2 °C
06:13
14,7 °C
14:13
1014,0 hPa1011,8 hPa
18:08
1016,3 hPa
02:53
12,6 km/h
W
52,2 km/h
15:33  
7,0 l/m²
7:55 Stunden
74 %57 %
14:18
86 %
23:18
23,4 klux105,0 klux
13:53
3:45 Std 



April
2015

Temperatur

  

Luftdruck

  

Wind

  

Regen

  

Luftfeuchte

  

Helligkeit

Sonnen-
schein

Ø

Min

Max

Ø

Min

Max

Ø

Max

Max

Ø

Min

Max

Ø

Max

Max

9,8 °C

-3,2 °C

07:42 Uhr
07.04.2015

26,7 °C

17:04 Uhr
15.04.2015

1020,6 hPa

1001,1 hPa

03:10 Uhr
27.04.2015

1039,3 hPa

08:17 Uhr
07.04.2015

9,1 km/h

W

57,1 km/h

16:41 Uhr
01.04.2015

16,7 l/m²

13:46 Stunden
27.04.2015

62 %

27 %

16:58 Uhr
19.04.2015

90 %

08:37 Uhr
02.04.2015

31 klux

105,0 klux

13:53 Uhr
30.04.2015

12:15 Std

am
20.04.2015

Gesamt

Gesamt

40,1 l/m²

11 Tage
53:27 h

210:07 Std


Wetter-Diagramme April 2015     Heinzenberg / Taunus   
TemperaturLuftfeuchte
SolarstrahlungLuftdruck
HelligkeitSonnenschein
RegenmengeRegendauer
Wind-GeschwindigkeitWind-Richtung